Location: *
(46.1866°S, 178.5290°W)
Time: 04:13:18
(UTC+00:00)

CZ-4B R/B - Pass Details

Date: 26 September 2021
Orbit: 809 x 881 km, 99.1° (Epoch: 17 October)

Event Time Altitude Azimuth Distance (km) Brightness Sun altitude
Rises 09:02:40 0° 182° (S) 3,376 6.9 -30.5°
Reaches altitude 10° 09:06:43 10° 212° (SSW) 2,431 6.4 -31.0°
Maximum altitude 09:08:30 12° 232° (SW) 2,306 6.3 -31.2°
Drops below altitude 10° 09:10:18 10° 252° (WSW) 2,424 6.3 -31.5°
Sets 09:14:19 0° 282° (WNW) 3,350 6.7 -32.0°
